Barksdale AFB, LA

1:12 PM CST on December 15, 2017 (GMT -0600)
Barksdale Air Force Base

Weather History for KBAD - September, 2013

Change the Weather History Date:

Sunday, September 22, 2013

  Actual Average Record
Temperature  
Mean Temperature 68 °F -  
Max Temperature 83 °F 81 °F 100 °F (2005)
Min Temperature 54 °F 61 °F 53 °F (1999)
Cooling Degree Days 3    
Growing Degree Days 18 (Base 50)    
Moisture  
Dew Point 53 °F    
Average Humidity 69    
Maximum Humidity 94    
Minimum Humidity 30    
Precipitation  
Precipitation 0.00 in - - ()
Sea Level Pressure  
Sea Level Pressure 29.88 in    
Wind  
Wind Speed 3 mph (NNE)    
Max Wind Speed 10 mph    
Max Gust Speed -    
Visibility 9 miles    
Events      
Averages and records for this station are not official NWS values.
T = Trace of Precipitation, MM = Missing Value Source: NWS Daily Summary

Daily Weather History Graph

Daily Weather History Graph

Search for Another Location

Airport or City:

Trip Planner

Search our weather history database for the weather conditions in past years. The results will help you decide how hot, cold, wet, or windy it might be!

Date:

Astronomy

Sep. 22, 2013 Rise Set
Actual Time 7:03 AM CDT 7:10 PM CDT
Civil Twilight 6:38 AM CDT 7:35 PM CDT
Nautical Twilight 6:09 AM CDT 8:04 PM CDT
Astronomical Twilight 5:40 AM CDT 8:32 PM CDT
Moon 9:15 PM CDT (9/22) 10:10 AM CDT (9/22)
Length of Visible Light 12h 56m
Length of Day
12h 07m
Waning Gibbous, 88% of the Moon is Illuminated
Sep 22
Waning Gibbous
Sep 26
Last Quarter
Oct 4
New
Oct 11
First Quarter
Oct 18
Full

Hourly Weather History & Observations

Time (CDT) Temp. Dew Point Humidity Pressure Visibility Wind Dir Wind Speed Gust Speed Precip Events Conditions
12:48 AM 60.8 °F 57.2 °F 88% 29.87 in 7.0 mi NNW 1.2 mph - N/A   Clear
12:58 AM 61.5 °F 57.6 °F 87% 29.88 in 5.0 mi North 2.3 mph - N/A   Clear
1:08 AM 60.8 °F 57.2 °F 88% 29.87 in 1.2 mi North 2.3 mph - N/A   Clear
1:18 AM 59.0 °F 57.2 °F 94% 29.87 in 9.0 mi North 3.5 mph - N/A   Clear
1:28 AM 59.0 °F 57.2 °F 94% 29.87 in 10.0 mi North 3.5 mph - N/A   Clear
1:58 AM 58.6 °F 54.9 °F 87% 29.88 in 10.0 mi North 3.5 mph - N/A   Clear
2:08 AM 59.0 °F 55.4 °F 88% 29.87 in 8.0 mi North 2.3 mph - N/A   Clear
2:18 AM 59.0 °F 55.4 °F 88% 29.87 in 6.0 mi North 2.3 mph - N/A   Haze
2:28 AM 59.0 °F 53.6 °F 82% 29.88 in 5.0 mi North 2.3 mph - N/A   Haze
2:38 AM 59.0 °F 53.6 °F 82% 29.87 in 10.0 mi North 4.6 mph - N/A   Clear
2:48 AM 59.0 °F 53.6 °F 82% 29.87 in 5.0 mi North 3.5 mph - N/A   Haze
2:58 AM 58.8 °F 53.6 °F 83% 29.88 in 9.0 mi North 1.2 mph - N/A   Clear
3:58 AM 57.4 °F 53.1 °F 85% 29.88 in 8.0 mi North 2.3 mph - N/A   Clear
4:08 AM 57.2 °F 53.6 °F 88% 29.87 in 10.0 mi North 2.3 mph - N/A   Clear
4:58 AM 55.9 °F 52.5 °F 88% 29.88 in 10.0 mi North 3.5 mph - N/A   Clear
5:58 AM 55.2 °F 51.8 °F 88% 29.89 in 10.0 mi North 4.6 mph - N/A   Clear
6:58 AM 54.5 °F 51.8 °F 91% 29.90 in 10.0 mi North 4.6 mph - N/A   Clear
7:58 AM 57.0 °F 53.2 °F 87% 29.91 in 10.0 mi North 3.5 mph - N/A   Clear
8:58 AM 61.2 °F 55.0 °F 80% 29.93 in 10.0 mi Variable 3.5 mph - N/A   Clear
9:58 AM 67.8 °F 55.2 °F 64% 29.94 in 10.0 mi East 6.9 mph - N/A   Clear
10:58 AM 73.4 °F 53.2 °F 49% 29.94 in 10.0 mi Variable 6.9 mph - N/A   Clear
11:58 AM 75.9 °F 52.3 °F 44% 29.93 in 10.0 mi East 9.2 mph - N/A   Clear
12:58 PM 78.8 °F 50.4 °F 37% 29.92 in 10.0 mi NE 10.4 mph - N/A   Clear
1:58 PM 79.3 °F 49.8 °F 36% 29.89 in 10.0 mi North 9.2 mph - N/A   Clear
2:58 PM 81.9 °F 48.4 °F 31% 29.86 in 10.0 mi Variable 5.8 mph - N/A   Clear
3:58 PM 82.4 °F 47.8 °F 30% 29.83 in 10.0 mi Variable 6.9 mph - N/A   Clear
4:58 PM 82.4 °F 47.7 °F 30% 29.82 in 10.0 mi NE 8.1 mph - N/A   Clear
5:58 PM 80.4 °F 49.6 °F 34% 29.82 in 10.0 mi East 4.6 mph - N/A   Clear
6:58 PM 76.3 °F 51.1 °F 41% 29.83 in 10.0 mi NE 2.3 mph - N/A   Clear
7:58 PM 72.3 °F 52.0 °F 49% 29.84 in 10.0 mi ENE 3.5 mph - N/A   Clear
8:58 PM 68.4 °F 53.8 °F 60% 29.86 in 10.0 mi East 3.5 mph - N/A   Clear
9:58 PM 66.4 °F 52.9 °F 62% 29.86 in 10.0 mi East 2.3 mph - N/A   Clear
10:58 PM 64.4 °F 52.9 °F 66% 29.87 in 10.0 mi East 3.5 mph - N/A   Clear
11:58 PM 63.5 °F 52.7 °F 68% 29.87 in 10.0 mi East 3.5 mph - N/A   Clear